Change the Weather History Date:

Monday, February 27, 2012

  Actual Average Record
Temperature  
Mean Temperature 48 °F 40 °F  
Max Temperature 60 °F 49 °F 70 °F (1996)
Min Temperature 36 °F 32 °F -1 °F (1963)
Degree Days  
Heating Degree Days 17 25  
Month to date heating degree days 678 748  
Since 1 July heating degree days 2973 3468  
Cooling Degree Days 0 0  
Month to date cooling degree days 0 0  
Year to date cooling degree days 0 0  
Moisture  
Dew Point 24 °F    
Average Humidity 40    
Maximum Humidity 50    
Minimum Humidity 30    
Precipitation  
Precipitation 0.00 in 0.10 in 2.66 in (1987)
Month to date precipitation 4.29 2.65  
Year to date precipitation 6.99 5.55  
Snow  
Snow 0.00 in - - ()
Month to date snowfall 10.7  
Since 1 July snowfall 19.3  
Snow Depth 0.00 in    
Sea Level Pressure  
Sea Level Pressure 30.33 in    
Wind  
Wind Speed 7 mph (West)    
Max Wind Speed 16 mph    
Max Gust Speed 23 mph    
Visibility 10 miles    
Events      
T = Trace of Precipitation, MM = Missing Value Source: NWS Daily Summary

Daily Weather History Graph

Daily Weather History Graph

Search for Another Location

Airport or City:

Trip Planner

Search our weather history database for the weather conditions in past years. The results will help you decide how hot, cold, wet, or windy it might be!

Date:

Astronomy

Feb. 27, 2012 Rise Set
Actual Time 6:59 AM EST 6:16 PM EST
Civil Twilight 6:33 AM EST 6:42 PM EST
Nautical Twilight 6:02 AM EST 7:12 PM EST
Astronomical Twilight 5:32 AM EST 7:43 PM EST
Moon 9:36 AM EST (2/27) 11:59 PM EST (2/27)
Length of Visible Light 12h 09m
Length of Day
11h 16m
Waxing Crescent, 29% of the Moon is Illuminated
Feb 27
Waxing Crescent
Feb 29
First Quarter
Mar 8
Full
Mar 14
Last Quarter
Mar 22
New

Hourly Weather History & Observations

Time (EST) Temp. Windchill Dew Point Humidity Pressure Visibility Wind Dir Wind Speed Gust Speed Precip Events Conditions
12:52 AM 41.0 °F 38.0 °F 17.1 °F 38% 30.29 in 10.0 mi South 4.6 mph - N/A   Clear
2:52 AM 39.0 °F 35.7 °F 17.1 °F 41% 30.32 in 10.0 mi WNW 4.6 mph - N/A   Clear
3:52 AM 36.0 °F 33.3 °F 18.0 °F 48% 30.33 in 10.0 mi West 3.5 mph - N/A   Clear
4:52 AM 37.9 °F - 16.0 °F 41% 30.34 in 10.0 mi Calm Calm - N/A   Clear
5:52 AM 41.0 °F 38.0 °F 18.0 °F 40% 30.35 in 10.0 mi WSW 4.6 mph - N/A   Mostly Cloudy
6:52 AM 39.9 °F 35.8 °F 18.0 °F 41% 30.36 in 10.0 mi WSW 5.8 mph - N/A   Mostly Cloudy
7:52 AM 41.0 °F 38.0 °F 19.0 °F 41% 30.37 in 10.0 mi West 4.6 mph - N/A   Overcast
8:52 AM 43.0 °F 40.3 °F 19.0 °F 38% 30.38 in 10.0 mi West 4.6 mph - N/A   Overcast
9:52 AM 48.9 °F - 19.9 °F 32% 30.37 in 10.0 mi West 5.8 mph - N/A   Overcast
10:52 AM 50.0 °F - 21.0 °F 32% 30.37 in 10.0 mi West 8.1 mph - N/A   Overcast
11:52 AM 53.1 °F - 28.0 °F 38% 30.35 in 10.0 mi West 13.8 mph 21.9 mph N/A   Overcast
12:52 PM 55.9 °F - 28.0 °F 34% 30.31 in 10.0 mi West 8.1 mph - N/A   Clear
1:52 PM 57.0 °F - 26.1 °F 30% 30.28 in 10.0 mi West 10.4 mph 18.4 mph N/A   Clear
2:52 PM 57.9 °F - 28.0 °F 32% 30.26 in 10.0 mi West 9.2 mph 18.4 mph N/A   Clear
3:52 PM 59.0 °F - 28.9 °F 32% 30.27 in 10.0 mi WSW 13.8 mph 20.7 mph N/A   Clear
4:52 PM 59.0 °F - 28.9 °F 32% 30.26 in 10.0 mi West 10.4 mph - N/A   Clear
5:52 PM 57.0 °F - 28.9 °F 34% 30.28 in 10.0 mi WNW 9.2 mph - N/A   Clear
6:52 PM 54.0 °F - 28.9 °F 38% 30.31 in 10.0 mi NW 8.1 mph - N/A   Clear
7:52 PM 52.0 °F - 28.9 °F 41% 30.32 in 10.0 mi WNW 6.9 mph - N/A   Clear
8:52 PM 50.0 °F - 28.9 °F 44% 30.33 in 10.0 mi West 6.9 mph - N/A   Clear
9:52 PM 48.9 °F - 30.0 °F 48% 30.35 in 10.0 mi West 8.1 mph - N/A   Clear
10:52 PM 48.0 °F - 30.0 °F 50% 30.36 in 10.0 mi WNW 6.9 mph - N/A   Clear
11:52 PM 45.0 °F 42.6 °F 30.0 °F 56% 30.37 in 10.0 mi WSW 4.6 mph - N/A   Clear